This is the latest recevied weather packets stored in our database for station/object EW3591. If no packets are shown the sender has not sent any weather packets the latest 10 day(s).
| Time | Temp. | Humidity | Pressure | Rain* | Wind** | Luminosity | Snow |
|---|---|---|---|---|---|---|---|
| 1777734018 | 7.78° C | 61% | 1014.8 hPa | 0 mm | - | - | - |
| 1777733898 | 7.78° C | 61% | 1015 hPa | 0 mm | - | - | - |
| 1777733777 | 8.33° C | 61% | 1015 hPa | 0 mm | - | - | - |
| 1777733626 | 7.78° C | 62% | 1015 hPa | 0 mm | - | - | - |
| 1777733506 | 7.78° C | 63% | 1015.1 hPa | 0 mm | - | - | - |
| 1777733386 | 7.22° C | 62% | 1015.1 hPa | 0 mm | - | - | - |
| 1777733265 | 7.22° C | 62% | 1015.1 hPa | 0 mm | - | - | - |
| 1777733145 | 7.22° C | 64% | 1015.2 hPa | 0 mm | - | - | - |
| 1777733025 | 7.22° C | 64% | 1015.2 hPa | 0 mm | - | - | - |
| 1777732904 | 7.22° C | 63% | 1015.2 hPa | 0 mm | - | - | - |
| 1777732784 | 6.67° C | 64% | 1015.2 hPa | 0 mm | - | - | - |
| 1777732664 | 6.67° C | 64% | 1015.2 hPa | 0 mm | - | - | - |
| 1777732544 | 6.67° C | 66% | 1015.2 hPa | 0 mm | - | - | - |
| 1777732423 | 6.11° C | 66% | 1015.2 hPa | 0 mm | - | - | - |
| 1777732303 | 6.11° C | 66% | 1015.2 hPa | 0 mm | - | - | - |
| 1777731556 | 6.67° C | 65% | 1015.1 hPa | 0 mm | - | - | - |
| 1777731435 | 6.67° C | 66% | 1015.2 hPa | 0 mm | - | - | - |
| 1777731315 | 6.67° C | 66% | 1015.2 hPa | 0 mm | - | - | - |
| 1777731195 | 6.11° C | 66% | 1015.2 hPa | 0 mm | - | - | - |
| 1777731075 | 6.11° C | 66% | 1015.2 hPa | 0 mm | - | - | - |
| 1777730954 | 6.11° C | 66% | 1015.3 hPa | 0 mm | - | - | - |
| 1777730834 | 6.11° C | 65% | 1015.2 hPa | 0 mm | - | - | - |
| 1777730714 | 6.11° C | 65% | 1015.2 hPa | 0 mm | - | - | - |
| 1777730593 | 6.11° C | 66% | 1015.3 hPa | 0 mm | - | - | - |
| 1777730473 | 6.11° C | 67% | 1015.3 hPa | 0 mm | - | - | - |
* Rain latest hour (hover to see other rain measurements)
** Current wind speed in m/s (hover to see current wind gust speed)